Temp
12 13 12 12 12 12 11 11 11 10 10 10 10 10 10 10 9 9 9 8 8 8
12 12 12 12 11 11 11 10 10 10 10 10 9 9 9 9 9 9 8 8 8 7
12 12 11 11 11 10 10 10 9 9 9 9 9 9 9 9 9 8 8 8 7 7
12 11 11 10 10 10 9 9 9 8 8 8 8 8 8 8 8 8 8 7 7 7
11 10 10 10 9 9 8 8 8 8 8 8 8 8 8 7 7 7 7 7 7 7
10 10 9 9 9 8 8 8 8 8 8 7 7 7 7 7 7 7 6 6 6 6
10 9 9 9 8 8 8 8 7 7 7 7 6 6 6 6 6 6 6 5 5 5
9 9 8 8 8 7 7 7 7 7 6 6 6 6 5 5 5 5 5 5 5 5
8 8 8 7 7 7 7 6 6 6 6 6 5 5 5 5 4 4 4 4 4 4
8 8 7 7 7 6 6 6 5 5 5 5 5 5 5 4 4 4 4 3 3 3
8 7 7 6 6 6 6 5 5 5 5 5 5 5 4 4 4 3 4 3 3 2
7 7 6 6 6 6 5 5 5 5 5 5 5 5 4 4 4 4 4 3 3 2
6 6 6 6 5 5 5 4 4 5 5 5 5 5 5 4 4 3 3 3 3 2
6 5 5 5 5 5 4 4 4 4 5 5 5 5 4 4 3 3 3 2 2 2
Height
827 827 828 828 827 827 826 825 824 823 822 820 819 818 818 817 817 817 817 817 817 817
825 825 826 826 825 824 824 823 822 821 819 818 816 815 815 815 815 814 814 813 813 813
822 823 824 823 822 822 822 821 819 818 816 814 813 812 811 811 811 810 811 809 810 810
820 820 820 820 820 820 820 819 817 815 813 812 811 811 810 809 808 808 809 808 807 806
818 819 819 819 819 819 818 817 815 813 811 810 809 808 807 806 805 804 803 802 802 801
816 816 817 817 817 816 815 813 812 810 809 807 806 805 803 802 801 800 798 797 796 795
815 815 815 815 814 813 812 810 809 807 806 804 802 802 801 799 797 797 795 793 792 790
813 813 812 812 812 811 809 808 806 805 804 802 800 799 798 797 795 793 791 789 787 785
811 811 811 810 809 808 807 806 805 803 801 798 797 795 795 793 790 789 786 784 782 780
809 808 808 807 806 805 804 803 802 800 798 795 793 792 790 789 787 785 783 781 780 776
807 806 806 805 804 803 801 799 798 795 794 791 788 787 786 785 783 782 778 778 775 772
806 805 803 803 801 799 797 796 794 792 789 787 786 784 781 781 778 776 773 771 769 768
803 802 801 799 797 797 795 793 790 788 786 784 782 781 777 776 772 771 769 766 763 763
800 799 798 796 795 794 792 790 787 785 783 780 778 774 773 770 767 765 762 759 756 756
Wind_Speed
8 7 7 8 8 10 13 14 14 13 14 14 13 14 16 16 15 15 15 15 15 14
8 8 8 8 9 11 12 12 13 13 14 13 13 12 13 17 17 17 16 17 16 16
9 8 8 9 9 9 9 10 11 11 11 11 11 11 13 15 16 17 18 17 17 18
8 8 8 8 8 9 9 9 10 10 11 11 11 11 12 14 15 17 19 18 19 19
7 7 7 7 8 8 9 9 10 11 10 10 10 10 11 13 13 15 17 18 19 21
7 7 7 8 7 8 9 10 10 10 10 11 11 12 11 13 14 15 15 16 17 19
7 7 7 8 8 8 10 11 11 11 11 12 12 13 13 13 14 15 15 15 17 19
7 7 8 9 9 10 10 11 12 13 13 13 13 12 13 14 15 16 17 17 18 19
7 8 9 9 10 11 12 13 13 13 14 15 14 13 14 15 16 17 17 20 20 19
8 9 10 10 11 12 13 13 13 14 15 16 16 16 16 16 16 17 18 19 20 21
9 10 10 11 13 14 14 14 15 16 16 17 18 17 16 16 15 18 19 18 19 20
10 10 11 14 15 15 15 15 15 16 17 17 19 16 15 16 17 19 19 19 19 18
8 11 13 14 15 15 14 15 16 17 16 17 20 19 18 17 17 20 21 21 21 19
9 11 12 13 14 15 16 17 18 20 22 22 23 22 20 19 18 21 22 23 23 21
Wind_Direction
224 242 263 276 285 295 301 307 310 304 297 296 293 278 266 272 277 271 273 275 273 273
225 242 257 271 286 300 305 306 304 305 303 300 298 290 275 272 277 279 278 279 277 273
229 245 265 280 291 295 301 304 306 310 311 311 311 302 288 282 278 277 279 281 280 279
234 252 270 281 292 295 302 307 314 321 326 326 322 317 303 296 291 284 284 284 283 283
256 264 273 283 290 296 306 317 325 328 328 325 320 315 307 302 298 292 289 289 285 284
257 263 270 284 293 305 314 321 324 323 324 322 320 313 307 301 298 294 290 289 285 285
260 262 278 291 301 308 314 318 317 318 319 318 316 315 310 306 302 298 293 290 289 289
268 272 290 295 302 305 309 312 313 314 314 316 314 313 308 305 303 299 297 299 300 298
279 278 287 295 302 304 308 310 310 310 311 313 311 310 304 304 302 297 298 303 306 305
280 282 287 291 294 301 305 306 307 309 313 310 310 313 311 306 299 296 299 302 307 308
286 287 289 293 298 301 303 304 306 310 311 310 310 313 310 305 299 294 298 301 307 305
285 286 294 297 302 304 304 305 306 307 307 310 308 312 308 302 293 290 290 297 303 302
284 293 296 299 301 301 299 298 302 304 308 310 309 313 309 301 294 287 293 301 303 304
293 297 299 299 298 300 299 299 301 303 307 310 312 313 310 303 292 284 288 291 298 303